Wind_Speed
13 13 14 15 15 15 15 14 13 12 12 13 13 13 11 10 9 9 8 6 5 4 5 6 8 9 11 11 11 11 12 12 14 15 16 17 17 17 18 18 17 17
15 15 16 17 17 17 17 16 15 15 14 15 14 14 14 12 11 9 8 7 6 5 6 7 8 10 11 11 11 11 12 13 16 17 18 19 20 20 20 20 19 19
18 18 18 18 19 19 20 19 18 17 17 16 15 16 15 14 12 10 9 8 7 6 7 8 9 10 10 10 11 11 13 15 17 18 20 21 22 22 21 21 21 20
20 20 20 20 21 23 23 22 20 19 19 18 17 17 17 15 13 12 10 9 7 7 8 9 9 9 9 9 11 13 15 16 17 18 20 22 22 22 21 21 20 20
23 22 22 23 24 25 25 24 23 22 21 21 19 18 17 16 14 13 11 9 8 8 8 9 10 9 9 10 12 14 15 16 17 19 20 21 21 21 20 20 19 19
24 24 24 25 26 27 26 26 26 25 23 23 21 19 18 17 15 14 11 10 9 8 8 9 10 10 10 11 13 14 15 15 17 18 19 20 20 20 20 20 20 18
25 25 26 26 27 27 27 27 28 27 26 25 22 20 19 18 16 15 12 11 9 9 9 9 10 11 12 13 14 14 14 15 17 19 20 20 21 21 21 21 21 20
24 26 27 27 27 28 28 29 29 29 28 25 22 21 21 19 17 15 13 12 10 9 9 10 11 12 13 13 14 14 14 15 18 20 21 21 22 22 22 22 22 22
23 25 26 27 28 28 29 29 30 30 27 24 22 23 22 20 18 16 14 13 11 10 10 11 12 13 14 14 14 13 14 16 19 20 22 23 24 24 24 23 23 24
21 22 24 25 26 27 28 29 30 29 25 23 24 24 22 21 19 17 15 13 12 12 12 12 13 14 14 14 13 14 15 17 19 21 23 25 26 27 27 26 25 25
18 19 19 20 22 24 25 27 28 27 25 25 25 24 23 22 20 18 16 14 13 13 12 13 14 15 15 14 14 15 17 19 20 21 23 26 27 28 28 27 27 26
15 15 15 17 19 21 24 26 27 27 26 26 25 25 24 23 21 19 17 16 15 14 13 13 14 15 15 15 15 16 18 20 21 23 24 26 28 29 28 28 28 28
15 15 15 16 18 21 24 26 27 27 26 26 26 26 25 24 22 20 19 18 16 14 14 14 14 15 16 16 16 18 19 21 23 24 26 27 29 30 30 28 28 28
16 16 17 18 19 22 24 26 26 26 26 26 27 27 26 25 23 22 21 20 17 15 15 14 14 15 16 16 17 19 20 22 24 26 28 29 31 32 30 28 26 27
17 17 19 20 21 22 24 25 25 25 26 27 27 27 27 26 25 24 23 20 18 16 15 14 14 15 15 16 17 19 21 23 24 26 29 31 32 31 28 26 26 26
18 18 19 21 23 23 24 24 25 26 27 27 27 28 28 28 27 25 22 20 19 17 15 14 14 15 15 16 17 19 22 24 24 26 28 29 29 28 25 25 26 27
20 20 20 20 22 24 26 26 27 27 28 28 28 29 29 29 28 25 21 20 20 17 15 14 15 16 16 16 17 19 22 23 23 24 26 27 28 27 26 26 27 28
22 22 21 20 21 24 27 28 29 29 29 29 30 30 30 30 28 24 21 21 20 17 15 15 16 17 16 15 17 20 22 22 22 23 25 27 28 29 29 29 29 30
25 25 24 22 22 24 27 29 30 31 31 31 31 32 31 30 27 23 22 22 20 17 16 15 16 16 15 14 16 20 22 23 23 24 26 28 30 32 32 32 32 32
28 27 26 25 24 26 28 30 30 31 31 32 33 34 33 30 26 24 23 23 21 18 17 16 16 16 15 15 17 21 23 23 23 25 27 29 32 34 36 36 35 34
31 30 29 28 28 27 28 30 30 31 32 33 35 35 34 30 27 25 25 23 21 20 18 17 18 17 15 15 18 22 24 24 24 26 28 31 33 36 38 40 39 36
33 32 31 31 31 30 30 30 31 31 32 33 35 36 35 32 29 27 25 24 23 21 19 19 20 18 16 17 20 24 25 25 26 27 29 31 34 36 38 41 41 38
35 35 33 33 33 33 31 31 32 32 32 33 35 37 37 34 31 27 26 25 25 23 22 22 21 19 17 19 22 24 25 26 27 28 30 32 35 36 39 41 41 39
36 36 36 35 36 35 33 33 33 33 32 32 34 38 38 34 31 29 28 28 27 26 25 24 22 20 20 22 25 26 26 26 28 29 31 34 35 37 40 42 40 37
36 37 37 38 38 37 36 35 34 33 33 33 35 38 38 36 33 32 31 30 28 27 27 26 24 23 23 25 27 27 27 28 29 30 33 35 36 37 39 40 39 37
36 37 38 39 39 39 38 37 35 34 34 34 36 37 38 37 36 34 33 31 29 28 29 28 26 26 26 27 28 29 29 29 30 32 34 35 36 37 38 39 39 39
Wind_Direction
239 239 238 238 237 237 239 241 244 252 260 266 271 275 273 262 255 257 263 271 280 296 307 312 317 321 323 325 327 328 326 320 316 318 323 325 326 325 323 322 321 321
235 237 240 244 246 245 244 243 246 252 258 263 268 272 272 262 251 252 258 262 271 284 293 301 309 315 318 322 324 323 317 311 312 318 322 324 325 325 321 317 314 314
237 237 239 243 247 248 248 248 250 253 256 260 263 265 267 261 248 246 251 255 263 276 285 295 302 308 313 315 315 311 307 308 313 319 323 325 326 327 325 319 313 310
241 239 239 241 244 248 253 255 254 255 256 257 257 259 264 260 246 240 243 246 255 268 280 289 296 302 305 305 302 301 304 309 316 321 324 327 328 328 328 325 320 315
243 241 239 241 244 248 252 256 256 256 256 256 256 256 260 256 244 235 235 237 245 258 272 282 289 294 295 294 295 298 304 312 319 325 328 329 329 330 331 331 329 325
245 244 243 243 244 247 251 254 256 256 256 257 255 252 254 252 240 231 228 231 240 249 262 273 281 285 286 290 293 297 305 316 324 328 330 331 331 333 335 336 335 332
244 245 244 244 245 247 249 252 255 257 257 257 252 248 249 246 236 227 224 227 236 244 254 265 273 278 282 286 290 296 308 319 326 328 330 332 335 337 338 339 338 335
243 244 244 244 245 246 248 251 254 257 258 255 247 243 246 241 231 224 223 225 229 237 248 259 269 274 278 282 287 296 309 319 324 328 332 334 336 337 338 338 338 335
245 245 245 246 247 247 249 251 255 257 257 249 239 240 243 238 228 223 222 223 224 231 244 257 266 271 274 280 286 297 309 317 322 327 331 335 336 336 334 334 334 332
247 247 248 249 249 249 250 251 253 253 248 238 235 240 242 236 229 225 224 224 225 231 242 253 262 269 275 280 287 298 307 314 321 326 330 333 334 334 333 331 328 327
251 249 249 249 248 246 246 246 246 243 237 231 233 239 239 235 231 228 226 226 227 232 240 251 261 270 277 284 291 297 303 311 320 326 329 331 333 334 334 331 326 323
255 249 248 246 244 241 239 239 238 236 232 231 233 236 236 234 232 230 229 229 230 233 241 253 264 273 282 289 293 295 301 310 318 324 327 329 330 331 332 331 328 325
261 249 245 244 241 239 238 237 237 236 234 232 233 234 234 233 233 232 232 232 233 235 244 255 265 277 287 292 294 298 304 310 316 321 325 326 325 326 327 329 328 326
264 250 243 242 241 240 241 243 243 242 239 235 234 234 234 233 232 231 233 234 234 237 245 256 267 279 288 292 297 303 308 311 315 319 322 323 322 321 322 325 326 325
267 257 247 244 244 244 245 249 252 251 245 239 236 234 234 233 232 232 235 237 238 240 246 255 267 277 285 293 301 306 308 311 316 321 324 324 322 320 322 325 326 325
270 266 257 251 250 249 250 251 254 254 251 245 239 234 233 234 234 235 236 238 241 243 248 254 265 275 283 294 302 304 306 311 318 324 327 327 325 324 324 326 326 325
270 271 269 264 258 254 253 253 254 255 254 249 242 236 234 233 235 237 237 239 242 245 248 255 263 272 281 291 298 300 303 308 317 326 329 328 325 324 324 325 325 324
269 271 272 273 270 263 258 255 254 254 254 252 247 241 237 234 235 237 237 239 243 246 250 255 260 267 274 284 292 296 300 306 316 324 328 328 326 323 321 321 322 323
266 269 271 274 275 271 263 258 256 256 256 255 251 245 240 237 235 234 236 239 243 246 249 252 254 259 266 278 289 294 298 305 315 320 323 325 327 326 323 319 318 319
263 265 268 271 274 274 270 267 264 260 257 254 251 247 244 240 236 235 237 240 242 244 246 248 253 258 265 278 287 290 295 305 313 317 320 322 323 325 325 323 319 316
261 263 266 270 273 274 274 274 271 265 259 254 251 249 246 242 238 237 237 239 241 243 245 250 257 262 270 280 283 286 293 303 312 316 318 320 321 323 325 325 321 315
259 261 264 268 272 274 275 277 276 271 263 255 251 250 248 245 241 237 237 240 243 245 249 255 261 266 274 280 282 286 294 303 311 316 318 319 319 322 324 324 320 313
258 258 262 265 269 272 274 276 277 273 265 257 252 252 251 249 244 238 237 240 242 246 252 257 261 267 275 281 283 288 296 304 310 315 317 317 318 320 321 321 317 311
255 256 259 262 265 268 271 274 274 273 269 261 254 252 251 248 243 238 237 239 242 247 253 257 261 268 275 281 285 290 298 305 309 313 314 314 316 318 318 318 317 312
249 253 257 260 262 265 268 270 272 272 269 262 254 250 249 245 240 238 239 240 243 248 254 258 263 269 275 281 285 291 298 303 307 310 311 312 314 316 315 315 315 312
245 249 253 256 260 263 265 267 268 269 267 261 255 251 246 242 240 239 241 244 246 251 256 261 266 270 274 279 283 289 295 300 305 307 308 310 313 313 312 313 314 312
Height
5909 5910 5910 5911 5911 5911 5911 5912 5912 5913 5914 5914 5914 5914 5914 5914 5914 5914 5914 5914 5914 5914 5914 5914 5914 5914 5914 5913 5913 5913 5912 5911 5910 5909 5908 5908 5907 5905 5904 5902 5901 5900
5907 5908 5908 5909 5909 5909 5909 5909 5910 5911 5911 5912 5912 5913 5913 5913 5912 5912 5912 5912 5913 5912 5912 5912 5912 5912 5912 5912 5912 5911 5911 5910 5909 5908 5907 5906 5905 5904 5903 5901 5900 5899
5905 5906 5906 5907 5907 5907 5907 5908 5908 5909 5909 5910 5911 5911 5911 5911 5911 5911 5911 5911 5911 5911 5911 5911 5911 5911 5911 5911 5911 5910 5909 5908 5907 5907 5906 5905 5904 5903 5901 5900 5898 5897
5903 5904 5904 5904 5905 5905 5905 5906 5907 5907 5907 5908 5909 5909 5910 5910 5909 5909 5910 5910 5910 5910 5909 5909 5909 5910 5910 5910 5909 5909 5908 5907 5906 5906 5905 5904 5902 5901 5900 5898 5896 5895
5901 5902 5902 5902 5902 5903 5903 5904 5904 5905 5905 5906 5906 5907 5908 5908 5908 5908 5908 5908 5908 5908 5908 5908 5908 5908 5908 5908 5908 5907 5906 5906 5905 5904 5903 5902 5901 5900 5898 5896 5894 5893
5898 5899 5900 5900 5900 5900 5901 5902 5902 5903 5903 5904 5904 5905 5905 5906 5906 5906 5906 5906 5906 5907 5907 5906 5906 5907 5907 5907 5906 5906 5905 5904 5904 5903 5902 5901 5899 5898 5896 5894 5893 5891
5895 5896 5897 5897 5898 5898 5899 5900 5900 5901 5901 5902 5902 5903 5903 5904 5904 5904 5904 5904 5904 5905 5905 5905 5905 5905 5905 5905 5905 5904 5904 5903 5902 5901 5900 5899 5897 5896 5894 5892 5891 5889
5891 5892 5893 5894 5895 5896 5896 5897 5897 5898 5899 5900 5901 5901 5901 5902 5902 5902 5902 5902 5902 5903 5903 5904 5904 5904 5904 5904 5903 5903 5902 5902 5901 5899 5898 5896 5895 5893 5892 5891 5889 5887
5888 5889 5890 5891 5892 5893 5894 5894 5895 5896 5896 5898 5898 5898 5899 5899 5900 5900 5900 5900 5900 5901 5901 5902 5902 5902 5902 5902 5902 5901 5901 5900 5899 5897 5896 5894 5892 5891 5889 5888 5886 5885
5885 5886 5888 5889 5890 5891 5891 5891 5892 5892 5894 5895 5896 5896 5897 5897 5897 5897 5897 5898 5898 5899 5899 5900 5900 5901 5900 5900 5900 5899 5899 5898 5896 5895 5893 5891 5889 5888 5886 5885 5883 5882
5883 5884 5885 5886 5887 5888 5888 5888 5889 5890 5891 5892 5893 5894 5894 5894 5895 5895 5895 5895 5896 5896 5897 5898 5898 5898 5898 5898 5898 5897 5896 5895 5894 5892 5891 5889 5887 5885 5884 5882 5880 5879
5881 5882 5883 5884 5885 5885 5886 5886 5886 5887 5888 5890 5891 5891 5892 5892 5893 5893 5893 5893 5893 5894 5894 5895 5895 5896 5895 5895 5895 5895 5894 5893 5891 5890 5888 5886 5884 5883 5881 5880 5878 5876
5880 5881 5881 5882 5883 5883 5884 5884 5884 5885 5886 5887 5888 5888 5889 5890 5891 5891 5890 5890 5891 5891 5892 5892 5893 5893 5893 5892 5892 5892 5891 5890 5888 5887 5885 5884 5882 5880 5879 5877 5876 5874
5878 5879 5880 5880 5881 5881 5882 5882 5883 5883 5884 5884 5884 5886 5887 5888 5889 5888 5888 5888 5888 5889 5890 5890 5890 5890 5890 5890 5889 5888 5887 5887 5886 5884 5883 5881 5880 5878 5876 5875 5874 5872
5877 5877 5878 5878 5879 5879 5880 5881 5881 5882 5882 5882 5882 5883 5885 5885 5886 5886 5886 5886 5887 5887 5888 5888 5888 5888 5888 5888 5887 5886 5884 5884 5883 5882 5880 5879 5877 5875 5874 5873 5871 5870
5875 5875 5876 5876 5877 5878 5878 5879 5879 5879 5879 5879 5880 5881 5882 5882 5883 5883 5884 5884 5885 5885 5886 5886 5886 5886 5886 5885 5884 5883 5882 5881 5881 5880 5878 5876 5874 5873 5872 5870 5869 5867
5874 5874 5874 5875 5875 5876 5876 5876 5876 5876 5877 5877 5878 5878 5879 5879 5880 5881 5882 5882 5882 5883 5884 5884 5884 5883 5883 5883 5882 5881 5879 5879 5879 5878 5876 5874 5872 5871 5869 5868 5866 5864
5872 5872 5872 5873 5873 5874 5874 5874 5874 5874 5874 5874 5875 5876 5876 5877 5878 5879 5880 5880 5880 5881 5881 5882 5881 5881 5880 5880 5879 5878 5877 5876 5876 5875 5873 5871 5870 5868 5867 5865 5863 5861
5869 5870 5870 5871 5871 5871 5871 5871 5871 5871 5872 5872 5873 5873 5873 5874 5875 5877 5877 5877 5878 5879 5879 5879 5878 5878 5878 5877 5876 5875 5874 5873 5873 5872 5870 5869 5867 5865 5864 5862 5861 5859
5866 5867 5868 5868 5868 5868 5868 5868 5868 5868 5869 5869 5869 5869 5870 5872 5873 5874 5874 5875 5876 5876 5876 5876 5875 5875 5874 5874 5873 5872 5870 5870 5869 5868 5867 5866 5864 5862 5861 5859 5858 5856
5863 5864 5864 5865 5865 5865 5865 5865 5865 5866 5866 5866 5866 5867 5868 5870 5871 5871 5872 5872 5873 5873 5873 5873 5872 5871 5871 5871 5870 5868 5867 5866 5866 5865 5864 5863 5861 5859 5857 5855 5854 5852
5860 5860 5861 5861 5861 5862 5862 5862 5863 5863 5863 5863 5864 5865 5865 5867 5867 5868 5869 5869 5870 5869 5869 5869 5869 5868 5868 5868 5866 5865 5864 5863 5863 5862 5861 5859 5857 5856 5854 5852 5850 5848
5856 5857 5857 5858 5857 5858 5859 5859 5859 5860 5860 5861 5861 5862 5862 5863 5865 5866 5866 5866 5866 5866 5866 5866 5866 5865 5865 5864 5863 5862 5861 5860 5860 5858 5857 5856 5854 5852 5851 5849 5846 5843
5853 5853 5853 5854 5854 5855 5856 5856 5856 5856 5857 5858 5858 5858 5859 5861 5862 5862 5863 5863 5863 5863 5863 5863 5863 5862 5861 5860 5859 5858 5858 5857 5856 5855 5854 5852 5850 5848 5847 5844 5842 5840
5849 5849 5849 5849 5850 5851 5852 5852 5853 5853 5854 5854 5855 5855 5857 5857 5857 5858 5859 5859 5860 5860 5859 5859 5859 5859 5858 5856 5855 5854 5854 5854 5853 5851 5850 5848 5846 5845 5843 5840 5838 5836
5844 5845 5845 5845 5846 5847 5848 5849 5849 5849 5850 5850 5851 5852 5853 5853 5853 5854 5855 5855 5856 5856 5856 5855 5855 5855 5854 5853 5852 5851 5850 5850 5849 5847 5846 5844 5842 5841 5839 5837 5834 5832